TimeCST,TemperatureF,Dew PointF,Humidity,Sea Level PressureIn,VisibilityMPH,Wind Direction,Wind SpeedMPH,Gust SpeedMPH,PrecipitationIn,Events,Conditions,WindDirDegrees,DateUTC
12:58 AM,36.7,28.8,73,30.11,10.0,NW,6.9,-,N/A,,Clear,320,2013-03-02 06:58:00
1:58 AM,35.2,27.5,73,30.11,10.0,WNW,5.8,-,N/A,,Clear,300,2013-03-02 07:58:00
2:58 AM,34.2,27.1,75,30.09,10.0,WNW,4.6,-,N/A,,Clear,300,2013-03-02 08:58:00
3:58 AM,33.4,26.6,76,30.09,10.0,West,3.5,-,N/A,,Clear,280,2013-03-02 09:58:00
8:55 AM,41.9,24.4,50,30.16,10.0,WNW,15.0,-,N/A,,Partly Cloudy,300,2013-03-02 14:55:00
9:55 AM,43.9,22.5,43,30.15,10.0,WNW,15.0,20.7,N/A,,Partly Cloudy,300,2013-03-02 15:55:00
10:55 AM,46.6,21.4,37,30.13,10.0,WNW,17.3,25.3,N/A,,Partly Cloudy,300,2013-03-02 16:55:00
11:55 AM,48.2,22.6,37,30.10,10.0,NW,12.7,26.5,N/A,,Scattered Clouds,320,2013-03-02 17:55:00
12:55 PM,48.2,21.2,34,30.07,10.0,NNW,16.1,23.0,N/A,,Scattered Clouds,330,2013-03-02 18:55:00
1:53 PM,48.2,21.2,34,30.06,10.0,NNW,16.1,24.2,N/A,,Mostly Cloudy,330,2013-03-02 19:53:00
1:55 PM,48.7,21.4,34,30.07,10.0,WNW,17.3,24.2,N/A,,Mostly Cloudy,300,2013-03-02 19:55:00
2:53 PM,48.2,21.2,34,30.05,10.0,WNW,13.8,19.6,N/A,,Mostly Cloudy,300,2013-03-02 20:53:00
3:58 PM,45.7,22.3,40,30.06,10.0,NW,16.1,-,N/A,,Mostly Cloudy,320,2013-03-02 21:58:00
4:58 PM,43.0,22.1,44,30.09,10.0,NNW,11.5,-,N/A,,Overcast,330,2013-03-02 22:58:00
5:53 PM,41.0,23.0,49,30.11,10.0,NW,15.0,-,N/A,,Overcast,320,2013-03-02 23:53:00
7:58 PM,40.3,24.1,52,30.14,10.0,NW,11.5,-,N/A,,Overcast,320,2013-03-03 01:58:00
8:58 PM,39.7,22.6,50,30.15,10.0,NW,15.0,20.7,N/A,,Overcast,320,2013-03-03 02:58:00
9:58 PM,39.4,23.4,53,30.15,10.0,NNW,11.5,-,N/A,,Overcast,330,2013-03-03 03:58:00
10:58 PM,38.7,21.7,51,30.15,10.0,NW,15.0,-,N/A,,Overcast,320,2013-03-03 04:58:00
11:58 PM,38.1,21.9,52,30.15,10.0,NW,8.1,-,N/A,,Overcast,320,2013-03-03 05:58:00